Portada
METAR-TAF:

METAR-TAF

Aeroports :

Derby, Austràlia

latitud: 17-22-12S, longitud: 123-39-38E, altitud: 7 m

Observació

L'informe es va fer fa 59 minuts, a les 01:00 UTC
Vent 8 kt del Sud-Oest
Temperatura 31°C
Humitat 75%
Pressió 1007 hPa
Visibilitat 10 km o més
Núvols disperses a una alçada de 2100 ft
Cel ennuvolat a una alçada de 12500 ft

METAR: YDBY 270100Z AUTO 22008KT 9999 // SCT021 BKN125 31/26 Q1007

Hora: 09:59 (01:59 UTC)


TAF: manca

Observacions i pronòstics meteorològics de més de 4000 aeroports (METAR i TAF).

Les estacions disponibles són els punts grocs i vermells al mapa.

Posi el ratolí al punt desitjat per veure el nom de l'estació.

Feu clic per veure les observacions i els pronòstics meteorològics.

Per canviar el mapa: feu clic els botons verds amb una creu de color negre per apropar; al botó verd amb un guió per allunyar la imatge; o en les fletxes verdes per a mapes adjacents.


METAR-TAF: